Weather past 2 weeks in Cayenne, French Guiana

Now
81 °F

Warm.


Feels Like: 85 °F
Forecast: 78 / 87 °F
Wind: No wind

Location: Cayenne / Rochambeau

Current Time: Jun 30, 2015 at 11:06:38 PM

Latest Report: Jun 30, 2015 at 10:30 PM


Visibility: N/A

Pressure: 29.95 "Hg

Humidity: 79%

Dew point: 73 °F

Location of CayenneLocation

Historic Weather in Cayenne — Graph

°F

Cayenne temperature yesterday

Maximum temperature yesterday: 88 °F (at 1:00 PM)
Minimum temperature yesterday: 73 °F (at 4:00 AM)
Average temperature yesterday: 80 °F

Past Weeks' High & Low Weather Summary

 TemperatureHumidityPressure
High90 °F (Jun 20, 1:30 PM)100% (Jun 16, 3:30 AM)30.07 "Hg (Jun 16, 3:30 AM)
Low72 °F (Jun 25, 5:30 AM)55% (Jun 26, 11:30 AM)29.86 "Hg (Jun 16, 4:30 AM)
Average79 °F85%29.96 "Hg
* Reported Jun 15 10:00 PM — Jun 30 10:00 PM, Cayenne, Weather by CustomWeather, © 2015

Note: Actual official high and low records may vary slightly from our data, if they occured in-between our weather recording intervals... More about our weather records

Advertising

Cayenne weather history for previous 24 hours

 ConditionsComfort  
Time TempWeatherWind HumidityBarometerVisibility
10:00 PM
Tue, Jun 30
81 °FWarm.No wind84%29.95 "HgN/A
9:30 PM81 °FWarm.No wind84%29.95 "HgN/A
9:00 PM82 °FWarm.No wind79%29.92 "HgN/A
8:30 PM82 °FWarm.5 mph79%29.92 "HgN/A
8:00 PM82 °FWarm.5 mph74%29.92 "HgN/A
7:30 PM82 °FWarm.8 mph74%29.92 "HgN/A
7:00 PM82 °FWarm.9 mph79%29.92 "HgN/A
6:30 PM84 °FWarm.8 mph70%29.89 "HgN/A
6:00 PM86 °FWarm.9 mph66%29.86 "HgN/A
5:30 PM86 °FWarm.10 mph70%29.86 "HgN/A
5:00 PM88 °FPassing clouds.9 mph66%29.86 "HgN/A
4:30 PM88 °FBroken clouds.9 mph66%29.86 "HgN/A
4:00 PM90 °FMostly cloudy.12 mph63%29.86 "HgN/A
3:30 PM90 °FPassing clouds.13 mph59%29.86 "HgN/A
3:00 PM90 °FPassing clouds.12 mph63%29.86 "HgN/A
2:00 PM88 °FBroken clouds.6 mph62%29.89 "HgN/A
1:30 PM88 °FBroken clouds.3 mph62%29.92 "HgN/A
1:00 PM88 °FBroken clouds.6 mph62%29.92 "HgN/A
12:00 PM90 °FPartly sunny.12 mph55%29.95 "HgN/A
11:30 AM88 °FScattered clouds.8 mph59%29.95 "HgN/A
11:00 AM88 °FScattered clouds.9 mph66%29.95 "HgN/A
10:00 AM84 °FBroken clouds.5 mph74%29.95 "HgN/A
9:30 AM84 °FPartly sunny.6 mph74%29.95 "HgN/A
9:00 AM84 °FWarm.3 mph74%29.95 "HgN/A
8:30 AM81 °FWarm.No wind84%29.95 "HgN/A
8:00 AM77 °FPassing clouds.No wind94%29.95 "HgN/A
7:30 AM75 °FPassing clouds.No wind100%29.92 "HgN/A
7:00 AM75 °FFog.No wind94%29.92 "HgN/A
6:30 AM73 °FFog.No wind100%29.92 "HgN/A
6:00 AM73 °FLight rain. Partly cloudy.No wind100%29.92 "HgN/A
5:30 AM73 °FMild.No wind94%29.92 "HgN/A
5:00 AM73 °FMild.No wind94%29.92 "HgN/A
4:30 AM73 °FPassing clouds.No wind100%29.92 "HgN/A
4:00 AM73 °FPassing clouds.No wind100%29.92 "HgN/A
3:30 AM73 °FPartly cloudy.No wind100%29.92 "HgN/A
3:00 AM75 °FMild.No wind94%29.92 "HgN/A
2:30 AM73 °FMild.No wind100%29.92 "HgN/A
2:00 AM75 °FPassing clouds.No wind94%29.92 "HgN/A
1:30 AM75 °FMild.No wind94%29.95 "HgN/A
1:00 AM75 °FPassing clouds.No wind94%29.95 "HgN/A
12:30 AM75 °FMild.No wind94%29.95 "HgN/A
12:00 AM75 °FPassing clouds.No wind94%29.95 "HgN/A
11:30 PM
Mon, Jun 29
75 °FPassing clouds.No wind94%29.95 "HgN/A
11:00 PM75 °FPassing clouds.No wind94%29.95 "HgN/A
Weather by CustomWeather, © 2015

See weather overviewHow to use our weather pages